Starlink 31016

operational
NORAD ID: 58548 Int'l Des: 2023-192 Owner: SPXS Country: US Constellation: starlink
LEOCIRCULAR

Starlink 31016について

説明を読み込み中...

リアルタイム位置

3D地球を読み込み中...

次回通過

高度履歴

Altitude vs Time

uPlot chart will show altitude changes over time

軌道要素

1 58548U 23192T 25304.26994566 -.00001747 00000-0 -46878-4 0 9996
2 58548 53.1609 303.6238 0001699 106.6314 253.4874 15.30183475106172
Epoch: Oct 31, 2025 • Age: 17 hours

現在のステータス

高度 484.4 km
速度 7.62 km/s
衛星直下点 -27.57°S, 116.63°W
打ち上げ日 Dec 8, 2023
運用期間 1.8 years
タイプ internet

技術仕様

分類 Payload
質量 730.00 kg
乾燥質量 700.00 kg
総質量 730.00 kg
長さ 0.30 m
直径 4.10 m
スパン 29.00 m
形状 Box + pan
製造者 SPXS
バスタイプ Starlink V2M
フェーズステータス In Orbit
所有者/国 SPXS/US

大規模コンステレーション

Loading constellations...